EFW56R EGKK-EGJJ

Flight info

Callsign EFW56R
Flight time 0h 33m
Altitude 20000
Route IMVUR N63 LELNA
Aircraft A320/M-SDE3FGHIRWY/LB1

Departure

Time 2026-05-04 18:49
Airport London Gatwick Airport (EGKK)

Arrival

Time 2026-05-04 19:22
Airport Jersey Airport (EGJJ)
Time Latitude Longitude Altitude Speed Heading
2026-05-04 18:08 51.15890 -0.16927 213 ft 0 kts 149°
2026-05-04 18:09 51.15890 -0.16928 213 ft 0 kts 150°
2026-05-04 18:09 51.15869 -0.16956 214 ft 0 kts 110°
2026-05-04 18:10 51.15911 -0.16883 216 ft 0 kts 148°
2026-05-04 18:11 51.15532 -0.16601 214 ft 0 kts 348°
2026-05-04 18:28 51.15517 -0.16596 215 ft 2 kts 347°
2026-05-04 18:28 51.15501 -0.16589 205 ft 2 kts 345°
2026-05-04 18:29 51.15485 -0.16582 213 ft 2 kts 340°
2026-05-04 18:29 51.15470 -0.16572 215 ft 2 kts 313°
2026-05-04 18:29 51.15465 -0.16552 214 ft 1 kts 258°
2026-05-04 18:29 51.15465 -0.16549 214 ft 0 kts 261°
2026-05-04 18:35 51.15465 -0.16552 214 ft 1 kts 261°
2026-05-04 18:35 51.15462 -0.16578 215 ft 4 kts 259°
2026-05-04 18:36 51.15456 -0.16630 207 ft 6 kts 259°
2026-05-04 18:36 51.15446 -0.16705 209 ft 8 kts 266°
2026-05-04 18:36 51.15450 -0.16826 208 ft 14 kts 258°
2026-05-04 18:36 51.15427 -0.16991 207 ft 16 kts 258°
2026-05-04 18:37 51.15396 -0.17167 210 ft 18 kts 242°
2026-05-04 18:37 51.15349 -0.17357 206 ft 16 kts 225°
2026-05-04 18:37 51.15294 -0.17499 205 ft 18 kts 260°
2026-05-04 18:37 51.15264 -0.17725 207 ft 22 kts 258°
2026-05-04 18:38 51.15228 -0.17979 213 ft 25 kts 257°
2026-05-04 18:38 51.15190 -0.18260 205 ft 27 kts 259°
2026-05-04 18:38 51.15154 -0.18567 207 ft 29 kts 257°
2026-05-04 18:38 51.15109 -0.18897 209 ft 31 kts 258°
2026-05-04 18:39 51.15066 -0.19211 207 ft 20 kts 256°
2026-05-04 18:39 51.14968 -0.19291 212 ft 16 kts 224°
2026-05-04 18:39 51.14934 -0.19503 209 ft 23 kts 257°
2026-05-04 18:39 51.14898 -0.19762 215 ft 25 kts 257°
2026-05-04 18:40 51.14858 -0.20052 205 ft 28 kts 258°
2026-05-04 18:40 51.14813 -0.20377 214 ft 31 kts 257°
2026-05-04 18:40 51.14765 -0.20721 208 ft 33 kts 257°
2026-05-04 18:40 51.14716 -0.21075 205 ft 33 kts 257°
2026-05-04 18:41 51.14677 -0.21315 207 ft 10 kts 236°
2026-05-04 18:41 51.14659 -0.21334 210 ft 0 kts 204°
2026-05-04 18:43 51.14649 -0.21337 205 ft 2 kts 186°
2026-05-04 18:44 51.14625 -0.21332 205 ft 4 kts 171°
2026-05-04 18:44 51.14612 -0.21328 205 ft 1 kts 168°
2026-05-04 18:47 51.14610 -0.21327 205 ft 1 kts 167°
2026-05-04 18:47 51.14585 -0.21316 214 ft 8 kts 162°
2026-05-04 18:48 51.14526 -0.21237 214 ft 13 kts 117°
2026-05-04 18:48 51.14520 -0.21172 208 ft 0 kts 78°
2026-05-04 18:48 51.14521 -0.21168 208 ft 5 kts 78°
2026-05-04 18:49 51.14584 -0.20726 217 ft 76 kts 77°
2026-05-04 18:49 51.14743 -0.19569 214 ft 132 kts 77°
2026-05-04 18:49 51.14954 -0.17997 476 ft 151 kts 77°
2026-05-04 18:49 51.15169 -0.16362 1054 ft 152 kts 77°
2026-05-04 18:50 51.15394 -0.14688 1565 ft 162 kts 76°
2026-05-04 18:50 51.15651 -0.12817 1890 ft 183 kts 76°
2026-05-04 18:50 51.15938 -0.10732 2238 ft 203 kts 76°
2026-05-04 18:50 51.16255 -0.08423 2719 ft 219 kts 76°
2026-05-04 18:51 51.16740 -0.06132 3561 ft 221 kts 54°
2026-05-04 18:51 51.17975 -0.04713 4318 ft 227 kts 14°
2026-05-04 18:51 51.19562 -0.04669 5121 ft 232 kts 352°
2026-05-04 18:51 51.21151 -0.05223 5952 ft 237 kts 341°
2026-05-04 18:52 51.22477 -0.06778 6674 ft 244 kts 303°
2026-05-04 18:52 51.22974 -0.09376 7281 ft 257 kts 269°
2026-05-04 18:52 51.22775 -0.12326 7762 ft 276 kts 259°
2026-05-04 18:52 51.22396 -0.15356 8554 ft 281 kts 257°
2026-05-04 18:53 51.21964 -0.18421 9392 ft 285 kts 256°
2026-05-04 18:53 51.21527 -0.21524 10230 ft 289 kts 257°
2026-05-04 18:53 51.21104 -0.24678 10996 ft 292 kts 257°
2026-05-04 18:53 51.20696 -0.27882 11733 ft 297 kts 258°
2026-05-04 18:54 51.20302 -0.31127 12468 ft 301 kts 259°
2026-05-04 18:54 51.19913 -0.34428 13201 ft 305 kts 260°
2026-05-04 18:54 51.19507 -0.37774 13933 ft 309 kts 259°
2026-05-04 18:54 51.19073 -0.41157 14586 ft 313 kts 258°
2026-05-04 18:55 51.18622 -0.44576 14915 ft 316 kts 258°
2026-05-04 18:55 51.16658 -0.51106 15314 ft 353 kts 223°
2026-05-04 18:55 51.14784 -0.53758 15608 ft 366 kts 220°
2026-05-04 18:56 51.12847 -0.56437 16174 ft 371 kts 220°
2026-05-04 18:56 51.10890 -0.59131 16802 ft 374 kts 220°
2026-05-04 18:56 51.08918 -0.61847 17455 ft 376 kts 220°
2026-05-04 18:56 51.06935 -0.64587 18108 ft 379 kts 220°
2026-05-04 18:57 51.04939 -0.67349 18709 ft 382 kts 220°
2026-05-04 18:57 51.02925 -0.70134 19312 ft 384 kts 220°
2026-05-04 18:57 51.00904 -0.72929 19822 ft 387 kts 220°
2026-05-04 18:57 50.98876 -0.75734 19973 ft 387 kts 220°
2026-05-04 18:58 50.97511 -0.77618 20013 ft 397 kts 220°
2026-05-04 18:58 50.95410 -0.80515 20011 ft 403 kts 220°
2026-05-04 18:58 50.92599 -0.84387 20008 ft 405 kts 220°
2026-05-04 18:58 50.90470 -0.87314 20007 ft 405 kts 220°
2026-05-04 18:59 50.88342 -0.90238 20007 ft 405 kts 220°
2026-05-04 18:59 50.86213 -0.93157 20004 ft 405 kts 219°
2026-05-04 18:59 50.84769 -0.95132 20018 ft 406 kts 219°
2026-05-04 18:59 50.82625 -0.98062 20014 ft 408 kts 219°
2026-05-04 19:00 50.80477 -1.00995 20013 ft 409 kts 219°
2026-05-04 19:00 50.78326 -1.03930 20014 ft 409 kts 219°
2026-05-04 19:00 50.76172 -1.06867 20014 ft 409 kts 219°
2026-05-04 19:00 50.74020 -1.09798 20014 ft 409 kts 219°
2026-05-04 19:01 50.71871 -1.12722 20014 ft 409 kts 219°
2026-05-04 19:01 50.69712 -1.15655 20014 ft 409 kts 219°
2026-05-04 19:01 50.66857 -1.19522 20012 ft 409 kts 219°
2026-05-04 19:01 50.65398 -1.21497 20010 ft 409 kts 219°
2026-05-04 19:02 50.63241 -1.24414 20010 ft 409 kts 219°
2026-05-04 19:02 50.61081 -1.27334 19999 ft 409 kts 219°
2026-05-04 19:02 50.58918 -1.30257 20000 ft 410 kts 219°
2026-05-04 19:02 50.56755 -1.33174 19995 ft 410 kts 219°
2026-05-04 19:03 50.54586 -1.36092 20001 ft 410 kts 219°
2026-05-04 19:03 50.52447 -1.38962 20001 ft 410 kts 219°
2026-05-04 19:03 50.50277 -1.41872 19996 ft 410 kts 219°
2026-05-04 19:03 50.48106 -1.44779 20004 ft 410 kts 219°
2026-05-04 19:04 50.45934 -1.47686 20007 ft 410 kts 219°
2026-05-04 19:04 50.43766 -1.50586 20003 ft 410 kts 218°
2026-05-04 19:04 50.41591 -1.53494 20006 ft 410 kts 219°
2026-05-04 19:04 50.39423 -1.56390 20013 ft 410 kts 218°
2026-05-04 19:05 50.37249 -1.59290 20003 ft 410 kts 218°
2026-05-04 19:05 50.35081 -1.62180 20010 ft 410 kts 218°
2026-05-04 19:05 50.32909 -1.65070 20004 ft 410 kts 218°
2026-05-04 19:05 50.30733 -1.67956 20008 ft 409 kts 218°
2026-05-04 19:06 50.28558 -1.70833 19996 ft 409 kts 218°
2026-05-04 19:06 50.26381 -1.73706 20000 ft 410 kts 218°
2026-05-04 19:06 50.24207 -1.76579 20011 ft 410 kts 218°
2026-05-04 19:06 50.22035 -1.79449 20000 ft 410 kts 218°
2026-05-04 19:07 50.19862 -1.82320 20009 ft 410 kts 218°
2026-05-04 19:07 50.17684 -1.85190 20024 ft 409 kts 218°
2026-05-04 19:07 50.15505 -1.88055 20026 ft 409 kts 218°
2026-05-04 19:07 50.13327 -1.90917 20024 ft 409 kts 218°
2026-05-04 19:08 50.11150 -1.93779 20014 ft 409 kts 218°
2026-05-04 19:08 50.08973 -1.96637 20021 ft 409 kts 218°
2026-05-04 19:08 50.06798 -1.99484 20017 ft 409 kts 218°
2026-05-04 19:08 50.04617 -2.02332 20017 ft 409 kts 218°
2026-05-04 19:09 50.02436 -2.05177 20005 ft 409 kts 218°
2026-05-04 19:09 50.00224 -2.07950 20008 ft 407 kts 213°
2026-05-04 19:09 49.97834 -2.10133 19961 ft 391 kts 203°
2026-05-04 19:09 49.95344 -2.11609 19752 ft 378 kts 194°
2026-05-04 19:10 49.92808 -2.12530 19331 ft 372 kts 191°
2026-05-04 19:10 49.90286 -2.13380 18860 ft 370 kts 191°
2026-05-04 19:10 49.87779 -2.14227 18342 ft 368 kts 191°
2026-05-04 19:10 49.85280 -2.15078 17764 ft 367 kts 191°
2026-05-04 19:11 49.82792 -2.15928 17232 ft 364 kts 191°
2026-05-04 19:11 49.80328 -2.16770 16731 ft 361 kts 191°
2026-05-04 19:11 49.77914 -2.17591 16241 ft 358 kts 191°
2026-05-04 19:11 49.75464 -2.18422 15746 ft 355 kts 191°
2026-05-04 19:12 49.73095 -2.19224 15283 ft 351 kts 191°
2026-05-04 19:12 49.68362 -2.20952 14275 ft 349 kts 193°
2026-05-04 19:12 49.66006 -2.21989 13781 ft 347 kts 194°
2026-05-04 19:13 49.63731 -2.23043 13253 ft 345 kts 195°
2026-05-04 19:13 49.61444 -2.24117 12756 ft 342 kts 195°
2026-05-04 19:13 49.59188 -2.25166 12481 ft 330 kts 195°
2026-05-04 19:13 49.57079 -2.26131 12334 ft 305 kts 194°
2026-05-04 19:14 49.55089 -2.27030 11899 ft 293 kts 194°
2026-05-04 19:14 49.53145 -2.27898 11317 ft 289 kts 194°
2026-05-04 19:14 49.51228 -2.28745 10711 ft 286 kts 194°
2026-05-04 19:14 49.49327 -2.29583 10102 ft 283 kts 194°
2026-05-04 19:15 49.47438 -2.30416 9483 ft 280 kts 195°
2026-05-04 19:15 49.45573 -2.31238 8844 ft 278 kts 195°
2026-05-04 19:15 49.43717 -2.32059 8214 ft 276 kts 195°
2026-05-04 19:15 49.41876 -2.32873 7591 ft 274 kts 195°
2026-05-04 19:16 49.40044 -2.33680 6970 ft 274 kts 195°
2026-05-04 19:16 49.38221 -2.34487 6371 ft 272 kts 195°
2026-05-04 19:16 49.36403 -2.35289 5744 ft 271 kts 195°
2026-05-04 19:16 49.34592 -2.36084 5120 ft 271 kts 195°
2026-05-04 19:17 49.32787 -2.36876 4513 ft 270 kts 195°
2026-05-04 19:17 49.30989 -2.37664 4031 ft 263 kts 195°
2026-05-04 19:17 49.29300 -2.38408 3901 ft 243 kts 195°
2026-05-04 19:17 49.27737 -2.39096 3759 ft 225 kts 195°
2026-05-04 19:18 49.26263 -2.39743 3404 ft 219 kts 195°
2026-05-04 19:18 49.24801 -2.40386 3131 ft 217 kts 195°
2026-05-04 19:18 49.23354 -2.41025 2819 ft 217 kts 195°
2026-05-04 19:18 49.21903 -2.41558 2647 ft 208 kts 180°
2026-05-04 19:19 49.20539 -2.41094 2643 ft 199 kts 147°
2026-05-04 19:19 49.19582 -2.39656 2623 ft 193 kts 116°
2026-05-04 19:19 49.19266 -2.37754 2520 ft 181 kts 86°
2026-05-04 19:19 49.19411 -2.35870 2289 ft 177 kts 81°
2026-05-04 19:20 49.19571 -2.34044 2048 ft 168 kts 81°
2026-05-04 19:20 49.19718 -2.32334 1841 ft 157 kts 81°
2026-05-04 19:20 49.19855 -2.30724 1628 ft 148 kts 81°
2026-05-04 19:20 49.19981 -2.29229 1450 ft 138 kts 81°
2026-05-04 19:21 49.20101 -2.27809 1280 ft 135 kts 81°
2026-05-04 19:21 49.20221 -2.26392 1083 ft 134 kts 80°
2026-05-04 19:21 49.20338 -2.24987 885 ft 133 kts 81°
2026-05-04 19:21 49.20454 -2.23579 715 ft 133 kts 79°
2026-05-04 19:22 49.20573 -2.22177 525 ft 133 kts 80°
2026-05-04 19:22 49.20693 -2.20764 355 ft 135 kts 79°
2026-05-04 19:22 49.20810 -2.19427 290 ft 108 kts 83°
2026-05-04 19:22 49.20866 -2.18752 283 ft 21 kts 83°
2026-05-04 19:23 49.20874 -2.18649 283 ft 8 kts 83°
2026-05-04 19:23 49.20883 -2.18547 282 ft 12 kts 82°
2026-05-04 19:23 49.20872 -2.18406 285 ft 15 kts 126°
2026-05-04 19:23 49.20780 -2.18405 285 ft 15 kts 219°
2026-05-04 19:24 49.20730 -2.18552 284 ft 18 kts 262°
2026-05-04 19:24 49.20714 -2.18752 284 ft 20 kts 265°
2026-05-04 19:24 49.20694 -2.18983 284 ft 23 kts 263°
2026-05-04 19:24 49.20685 -2.19230 284 ft 23 kts 284°
2026-05-04 19:25 49.20705 -2.19473 284 ft 23 kts 262°
2026-05-04 19:25 49.20663 -2.19649 285 ft 13 kts 221°
2026-05-04 19:25 49.20607 -2.19664 284 ft 9 kts 161°
2026-05-04 19:25 49.20567 -2.19641 284 ft 2 kts 158°
2026-05-04 19:26 49.20562 -2.19637 284 ft 0 kts 158°